Location: Ch?enovice
(49.7164°N, 15.2160°E)
Time: 14:30:05
(UTC+00:00)

deb Kosmos-1275 - Visible Passes

Search period start: 03 October 2024 00:00
Search period end: 13 October 2024 00:00
Orbit: 798 x 874 km, 82.8° (Epoch: 02 October)

Date Brightness Start Highest point End Pass type
(mag) Time Alt. Az. Time Alt. Az. Time Alt. Az.
03 Oct ? 01:23:25 19° ESE 01:25:26 24° E 01:29:39 10° NNE visible
03 Oct ? 03:05:10 32° SW 03:07:29 56° WNW 03:12:47 10° N visible
04 Oct ? 01:07:59 19° ESE 01:09:17 20° E 01:13:07 10° NE visible
04 Oct ? 02:49:44 47° SW 02:51:11 66° WNW 02:56:33 10° N visible
04 Oct ? 04:32:53 10° WNW 04:34:45 12° WNW 04:36:36 10° NW visible
05 Oct ? 00:52:26 17° E 00:53:06 17° E 00:56:28 10° NE visible
05 Oct ? 02:34:11 67° SW 02:34:51 77° W 02:40:15 10° N visible
05 Oct ? 04:15:55 11° W 04:18:15 14° WNW 04:20:55 10° NNW visible
06 Oct ? 00:36:47 14° E 00:36:52 14° E 00:39:39 10° NE visible
06 Oct ? 02:18:31 89° N 02:18:31 89° N 02:23:53 10° N visible
06 Oct ? 04:00:15 14° W 04:01:43 16° WNW 04:04:57 10° NNW visible
07 Oct ? 00:21:02 12° ENE 00:21:02 12° ENE 00:22:32 10° ENE visible
07 Oct ? 02:02:45 66° NE 02:02:45 66° NE 02:07:28 10° NNE visible
07 Oct ? 03:44:29 18° WNW 03:45:10 18° WNW 03:48:52 10° NNW visible
08 Oct ? 01:46:54 50° NE 01:46:54 50° NE 01:50:59 10° NNE visible
08 Oct ? 03:28:38 21° WNW 03:28:38 21° WNW 03:32:39 10° NNW visible
09 Oct ? 01:30:58 38° NE 01:30:58 38° NE 01:34:26 10° NNE visible
09 Oct ? 03:12:41 24° NW 03:12:41 24° NW 03:16:20 10° NNW visible
10 Oct ? 01:14:57 29° NE 01:14:57 29° NE 01:17:48 10° NNE visible
10 Oct ? 02:56:39 26° NW 02:56:39 26° NW 02:59:58 10° N visible
11 Oct ? 00:58:51 23° NE 00:58:51 23° NE 01:01:07 10° NNE visible
11 Oct ? 02:40:34 26° NNW 02:40:34 26° NNW 02:43:30 10° N visible
12 Oct ? 00:42:42 19° NE 00:42:42 19° NE 00:44:22 10° NNE visible
12 Oct ? 02:24:24 25° NNW 02:24:24 25° NNW 02:26:59 10° N visible
